Погода в Семипалатинске

Хотите узнать прогноз погоды в Семипалатинске? Тогда Вам сюда: Погода в Семипалатинске

Поиск расширенной информации на нашем сайте:

Полезная информация:

Новости сайта



02.01.2020
Опубликован Долгосрочный прогноз погоды по городам России и ближнего зарубежья на январь 2020 года.
Карты: Прогноз на январь и февраль 2020 года, Сравнение прогнозируемой аномалии приземной температуры воздуха на январь 2020 года по разным моделям.




Погода в Семипалатинске - сегодня

Время (UTC), дата Ветер
(°,м/с) 
Видим.   Явления Облачность Т
(°С)
Тd
(°С)
f(%) Тe
(°С)
Pmin
(гПа)
dP
(гПа)
Po
(мм)
O2
(г/м3)
Тmin Tmax R s Состояние
почвы
12 16.04.21 200 (Ю) 10 км    ясно 
+20.3 +2.6 31 +20  1014.9  -1.5  744  279           
15 16.04.21 тихо ()   н/о    ясно 
+12 +3.5 56 +12  1015.2  -0.4  744  287    +22.1       
18 16.04.21 тихо ()   н/о    ясно 
+5.6 +2.9 83 +6  1015.1  -0.6  743  293    +22.1       
21 16.04.21 тихо ()   н/о    4/0 средняя 
[Ac trans]
+3.7 +1.7 87 +4  1014.6  -0.6  743  295           
00 17.04.21 тихо ()   10 км    9/5 1000 м средняя, верхняя 
[Sc|Ac trans|Ci fib]
+2.9 +1.1 88 +3  1015.3  0.6  743  296           
03 17.04.21 360 (С) 10 км    9/6 1000 м средняя, верхняя 
[Sc|Ac trans|Ci fib]
+10 +3.4 63 +10  1015.8  1.1  744  289           
06 17.04.21 320 (СЗ) 10 км    6/0 средняя, верхняя 
[Ac trans|Ci fib]
+12.7 +4.9 59 +13  1017.9  2.2  746  286  +2.1         
09 17.04.21 320 (СЗ) 10 км    3/0 верхняя 
[Ci fib]
+13.5 +3.8 52 +13  1018.6  0.8  747  286           
12 17.04.21 050 (СВ) 10 км    ясно 
+12.2 +2.9 53 +11  1019.4  0.7  747  288           
15 17.04.21 050 (СВ) н/о    ясно 
+8.8 +0.3 55 +9  1020.8  748  292    +14.2       
18 17.04.21 тихо ()   н/о    ясно 
+2.4 -0.6 81 +2  1021.6  0.3  748  299    +14.2       
21 17.04.21 тихо ()   н/о    ясно 
-1 -3.6 82 -1  1021.7  -0.2  748  303           
00 18.04.21 тихо ()   10 км    3/0 верхняя 
[Ci fib]
-2 -4.1 85 -2  1021.5  -0.3  748  304           
03 18.04.21 050 (СВ) 10 км    3/0 верхняя 
[Ci fib]
+5 +0.3 72 +5  1020.2  -0.7  747  296           
06 18.04.21 090 (В) 10 км    4/0 верхняя 
[Ci fib]
+15.4 -1.3 32 +16  1017.5  -1.8  746  285  -2         
09 18.04.21 тихо ()   10 км    6/0 средняя 
[Ac trans]
+18.5 -0.7 27 +19  1015  -2.2  744  281           
12 18.04.21 тихо ()   10 км    8/0 средняя 
[Ac trans]
+20 +0.4 27 +20  1012.5  -2.3  742  279           
15 18.04.21 тихо ()   н/о    6/0 средняя 
[Ac trans]
+12.4 +1.1 46 +12  1011.9  -1.2  742  286    +21.3       
18 18.04.21 200 (Ю) н/о    10/10 1000 м 
[Sc]
+12.5 +2.2 49 +12  1009.3  -2.5  740  285    +21.3       
21 18.04.21 230 (ЮЗ) н/о    8/8 1000 м 
[Sc]
+8 +0.5 59 +8  1008.8  -0.9  739  289           
00 19.04.21 270 (З) 10 км    9/9 1000 м 
[Sc]
+8.3 +4.7 78 +6  1011.9  3.1  741  289           
03 19.04.21 340 (С) 10 км    10/10 600 м кучево-дожд. 
[Cb calv]
+3 +0.6 84 1017.3  4.8  745  297           
06 19.04.21 340 (С) 10 км    9/9 600 м кучево-дожд. 
[Cb calv]
+1 -5 64 -2  1021.2  3.6  748  301  +3         
09 19.04.21 320 (СЗ) 10 км    10/10 600 м кучево-дожд. 
[Cb calv]
+1.4 -6.9 54 +1  1022.4  1.2  749  301           
12 19.04.21 360 (С) 10 км    10/10 600 м кучево-дожд. 
[Cb calv]
+1.6 -7.5 51 +1  1021.5  -0.8  748  300           
Время (UTC), дата Ветер
(°,м/с) 
Видим.   Явления Облачность Т
(°С)
Тd
(°С)
f(%) Тe
(°С)
Pmin
(гПа)
dP
(гПа)
Po
(мм)
O2
(г/м3)
Тmin Tmax R s Состояние
почвы

Для получения пояснительной информации подведите курсор к названию столбца.

ПОГОДА в Семипалатинске - архив

Всё, что Вы хотите узнать о погоде в Семипалатинске - удобно и подробно!

Выберите нужную дату (начиная с 1 января 2019* года) и нажмите кнопку "Найти".
Будут отображены архивные сводки погоды по пункту Семипалатинск, начиная с указанной даты.


Отображать данные в формате CSV (для использования в таблицах Excel)


Внимание! Наш архив погоды предназначен исключительно для личного некоммерческого использования в познавательных целях. Если Вам необходимы официальные справки о состоянии погоды (для производственных, юридических, коммерческих и т.п. целей), обращайтесь в органы Росгидромета.

*Примечание: данная дата относится к архиву по метеостанциям СССР (Россия, СНГ, Балтия).
Архив по метеостанциям Зарубежной Европы и Азии (кроме Китая) хранится 10 дней, по другим регионам земного шара (Китай, Африка, Америка, Австралия, Океания) - 1 день.

Семипалатинск - район местоположения метеостанции


Название, широта, долгота, высота метеостанции:
Семипалатинск 50.4°ш. 80.3°д. 196 м над ур. моря [Казахстан]

Дополнительная информация

В oтличие oт бoльшинства пoгoдных сайтoв мы публикуем пoдрoбную метеoинфoрмацию в детальнoм прoфессиoнальнoм фoрмате.

Характеристики температуры и влажнoсти вoздуха измеряются на высoте 2 м в тени вдали oт зданий и деревьев.
Скoрoсть ветра измеряется на высoте 10 м (на урoвне рoста челoвека скoрoсть ветра ниже в 1.5-2 раза). Если метеoстанция нахoдится в гoрoде или в лесу, тo скoрoсть ветра занижена на 2-4 м/с пo сравнению с oткрытым местoм. Скoрoсть ветра над акватoриями крупных рек и oзёр, а также на вершинах хoлмoв на 2-5 м/с выше, чем в oбычных услoвиях.
Атмoсфернoе давление в разных тoчках местнoсти мoжет значительнo oтличаться oт давления на метеoстанции, в зависимoсти oт услoвий рельефа (при пoдъёме на 10 м давление пoнижается примернo на 1 мм рт.ст.).